Simultaneous Nadir Overpasses (SNOs) Predictions

Prediction of SNOs between GOES-15 and METOP-B Satellite Orbit:

Table of predicted SNOs for the next 14.0 days since TLE Epoch: 11/29/2019
Index Date Time (GOES-15) GOES-15 Lat,Lon METOP-B Lat,Lon Distance(km) Time Diff (sec)
1 11/30/2019 18:00:09 -0.19,-128.36 -0.41,-127.28 121.95 80
2 12/02/2019 06:19:10 0.18,-128.35 -0.61,-131.88 402.75 80
3 12/03/2019 05:55:52 0.18,-128.33 0.52,-126.89 163.95 80
4 12/04/2019 18:17:24 -0.17,-128.28 0.54,-131.44 360.75 80
5 12/05/2019 17:56:46 -0.17,-128.26 -0.58,-126.45 206.07 80
6 12/07/2019 06:15:46 0.16,-128.24 -0.49,-131.04 318.92 80
7 12/08/2019 05:52:28 0.17,-128.22 0.63,-126.05 247.32 80
8 12/09/2019 18:14:00 -0.15,-128.16 0.42,-130.60 278.47 80
9 12/10/2019 17:53:21 -0.16,-128.14 -0.71,-125.61 287.65 80
10 12/12/2019 06:12:23 0.15,-128.11 -0.31,-130.21 238.40 80
11 12/13/2019 05:49:04 0.15,-128.08 0.82,-125.22 326.96 80




NCC Satellite Simultaneous Nadir Overpasses (SNOs) Prediction Service
